User: anonymous   Login
Location: Dover
(39.1580°N, 75.5250°W)
Time: 03:17:09
(UTC-04:00)
Language:

SeaSat 1 - Orbit

View from above orbital plane
View from above orbital plane
View from above satellite
View from above satellite

Ground track
Ground track

The orbit data is extracted from the following two-line orbital elements,

1 10967U 78064A   15107.73836296  .00000462  00000-0  17725-3 0  9993
2 10967 107.9963 086.5220 0002095 246.8334 113.2589 14.43350386932391
Epoch (UTC): 17 April 2015 17:43:14
Eccentricity: 0.0002095
inclination: 107.9963°
perigee height: 746 km
apogee height: 749 km
right ascension of ascending node: 86.5220°
argument of perigee: 246.8334°
revolutions per day: 14.43350386
mean anomaly at epoch: 113.2589°
orbit number at epoch: 93239

The dashed part of the orbit path shows where the satellite is in the earth's shadow,  

DLR